User: anonymous   Login
Location: Milton Keynes
(52.0316°N, 0.7531°W)
Time: 10:09:11
(UTC+01:00)
Language:

GENESIS II - Orbit

View from above orbital plane
View from above orbital plane
View from above satellite
View from above satellite

Ground track
Ground track

The orbit data is extracted from the following two-line orbital elements,

1 31789U 07028A   19108.78513879 +.00000467 +00000-0 +33556-4 0  9995
2 31789 064.5036 294.1386 0046147 294.1695 065.4606 15.16884650650603
Epoch (UTC): 18 April 2019 18:50:35
Eccentricity: 0.0046147
inclination: 64.5036°
perigee height: 483 km
apogee height: 547 km
right ascension of ascending node: 294.1386°
argument of perigee: 294.1695°
revolutions per day: 15.16884650
mean anomaly at epoch: 65.4606°
orbit number at epoch: 65060

The dashed part of the orbit path shows where the satellite is in the earth's shadow,  

DLR